DELTA 1 DEB, 5443

Orbit data source: Space-Track

DELTA 1 DEB, 5443 is space debris in SSO originally from a launch on Fri, 10 Nov 1967 UTC launched from the Air Force Western Test Range (AFWTR). Debris objects in space refer to the collection of defunct objects orbiting the Earth. Examples of debris include non-operational satellites, rocket bodies, and fragments generated from explosions, collisions, or faulty payload assembly.

Loading next visibility...
DELTA 1 DEB details
Identifier
5443, 1967-114E
Orbit
SSO
Last TLE update3 days ago
Origin
Flag of USGSFC (US)
ManufacturerUnknown
MissionSpacecraft
Bus & MotorUnknown
MassUnknown
Launch date (UTC)
1967-11-10 (57 years ago)
Launch vehicleUnknown
Launch site
Air Force Western Test Range (AFWTR)
Object type
Payload
Rocket body
Debris
Shape & HBRUnknown
Radar Cross SectionSmall (<0.1 m²)

Expand to show TLE details & history

TLE from 3 days ago
0 DELTA 1 DEB
1 05443U 67114E   24353.67901991 -.00000021  00000-0  13307-3 0  9995
2 05443 101.3321 316.7922 0062467  21.3767 152.9364 12.56785772618724
Epoch: 2024-12-18T16:17Z
Definitive object data (Epoch: 2024-12-18T16:17:47.32Z)
Latitude5.18277°
Longitude165.61169°
Altitude1,481.855 km
Speed7.103 km/s
True Right ascension09h 11m 18s
True Declination5° 09' 17"
Sunlit
Object was in full shadow at TLE epoch
Visualization TLE readout
Latitude62.72682°
Longitude-35.37392°
Altitude1,414.848 km
Speed7.174 km/s
Apparent Right ascension23h 09m 04s
Apparent Declination24° 06' 55"
Sunlit
Object is in daylight
Visualization observer readout
Local Sidereal Time13:26:08
Azimuth32.805° NE
Elevation-18.442°
Doppler factor1
Orbital elements
Apogee altitude1,482.552 km
Perigee altitude1,384.955 km
Semi-major axis7,811.89 km
Eccentricity0.0062467
Inclination101.3321°
RAAN316.7922°
Arg. of periapsis21.3767°
True anomaly153.25983°
Mean anomaly152.9364°
Eccentric anomaly153.09834°
Mean motion3.14347 °/min
BSTAR0.00013307
Orbital period114.52 mins
Loading maneuver chart data...
Loading historical data...
Loading historical data...
Loading historical data...
Loading historical data...
Loading historical data...
Loading historical data...
Loading historical data...
Other satellites on launch #114 in the year 1967 (1967-11-10 UTC)

DELTA 1 DEB Visibility forecast

Observer location: undefined°, undefined

Span
Click to sort rows by Start time (UTC) header in descending order
Start Az.
Max El. time (UTC)
Max El. Az.
Max El.
End time (UTC)
End Az.
12 mins2024-12-21 19:57:01.476Z105.023° ESE2024-12-21 20:03:01.476Z53.766° ENE23.26°2024-12-21 20:09:01.476Z5.005° NNE
14 mins2024-12-21 21:48:01.476Z171.651° S2024-12-21 21:55:01.476Z275.28° WNW43.5°2024-12-21 22:02:01.476Z338.698° N
13 mins2024-12-22 09:49:01.476Z38.915° NE2024-12-22 09:55:01.476Z102.769° ESE32.946°2024-12-22 10:02:01.476Z164.789° S
14 mins2024-12-22 11:41:01.476Z1.281° NNE2024-12-22 11:47:01.476Z302.208° NW35.74°2024-12-22 11:55:01.476Z227.762° WSW
|